Weather History for KTOI - December, 2013

Change the Weather History Date:

Saturday, December 28, 2013

  Actual Average Record
Temperature  
Mean Temperature 47 °F 46 °F  
Max Temperature 51 °F 58 °F 73 °F (2007)
Min Temperature 42 °F 35 °F 15 °F (2010)
Degree Days  
Heating Degree Days 18 19  
Month to date heating degree days 365 468  
Since 1 July heating degree days 718 861  
Moisture  
Dew Point 41 °F    
Average Humidity 78    
Maximum Humidity 96    
Minimum Humidity 60    
Precipitation  
Precipitation 1.75 in 0.12 in 2.48 in (2000)
Month to date precipitation 6.11 4.54  
Year to date precipitation 56.84 54.32  
Snow  
Snow 0.00 in - - ()
Month to date snowfall 0.0  
Since 1 July snowfall 0.0  
Snow Depth 0.00 in    
Sea Level Pressure  
Sea Level Pressure 30.13 in    
Wind  
Wind Speed 8 mph (ENE)    
Max Wind Speed 15 mph    
Max Gust Speed 20 mph    
Visibility 5 miles    
Events Rain    
T = Trace of Precipitation, MM = Missing Value Source: NWS Daily Summary

Daily Weather History Graph

Daily Weather History Graph

Search for Another Location

Airport or City:

Trip Planner

Search our weather history database for the weather conditions in past years. The results will help you decide how hot, cold, wet, or windy it might be!

Date:

Astronomy

Dec. 28, 2013 Rise Set
Actual Time 6:43 AM CST 4:48 PM CST
Civil Twilight 6:16 AM CST 5:15 PM CST
Nautical Twilight 5:45 AM CST 5:45 PM CST
Astronomical Twilight 5:16 AM CST 6:15 PM CST
Moon 2:27 AM CST (12/28) 1:32 PM CST (12/28)
Length of Visible Light 10h 59m
Length of Day
10h 05m
Waning Crescent, 19% of the Moon is Illuminated
Dec 28
Waning Crescent
Jan 1
New
Jan 7
First Quarter
Jan 15
Full
Jan 23
Last Quarter

Hourly Weather History & Observations

Time (CST) Temp. Windchill Dew Point Humidity Pressure Visibility Wind Dir Wind Speed Gust Speed Precip Events Conditions
12:53 AM 46.0 °F 43.1 °F 34.0 °F 63% 30.33 in 10.0 mi NNE 5.8 mph - N/A   Mostly Cloudy
1:53 AM 46.9 °F - 33.1 °F 59% 30.32 in 10.0 mi East 4.6 mph - N/A   Overcast
2:53 AM 46.9 °F - 33.1 °F 59% 30.29 in 10.0 mi NE 8.1 mph - N/A   Overcast
3:53 AM 46.9 °F - 33.1 °F 59% 30.28 in 10.0 mi ENE 6.9 mph - 0.00 in Rain Light Rain
4:53 AM 46.0 °F 43.1 °F 36.0 °F 68% 30.27 in 10.0 mi ENE 5.8 mph - 0.00 in Rain Light Rain
5:53 AM 46.0 °F 43.1 °F 34.0 °F 63% 30.27 in 10.0 mi East 5.8 mph - 0.00 in   Overcast
6:26 AM 46.9 °F - 34.0 °F 61% 30.28 in 10.0 mi East 5.8 mph - 0.00 in Rain Light Rain
6:53 AM 44.1 °F 40.8 °F 37.0 °F 76% 30.28 in 5.0 mi ENE 5.8 mph - 0.04 in Rain Rain
7:30 AM 43.0 °F 40.3 °F 37.9 °F 82% 30.28 in 2.5 mi ENE 4.6 mph - 0.03 in Rain Light Rain
7:43 AM 43.0 °F 38.2 °F 37.9 °F 82% 30.29 in 1.5 mi ENE 8.1 mph - 0.06 in Rain Rain
7:53 AM 42.1 °F 37.7 °F 39.0 °F 89% 30.30 in 1.8 mi ENE 6.9 mph - 0.08 in Rain Rain
8:06 AM 42.1 °F 37.7 °F 39.0 °F 89% 30.30 in 1.5 mi ENE 6.9 mph - 0.03 in Rain Rain
8:19 AM 42.1 °F 36.1 °F 39.0 °F 89% 30.29 in 1.8 mi NE 10.4 mph - 0.04 in Rain Light Rain
8:28 AM 42.1 °F 36.1 °F 39.9 °F 92% 30.29 in 2.5 mi NE 10.4 mph - 0.06 in Rain Rain
8:35 AM 42.1 °F 36.6 °F 39.9 °F 92% 30.29 in 3.0 mi NE 9.2 mph - 0.07 in Rain Rain
8:45 AM 42.1 °F 36.1 °F 39.9 °F 92% 30.29 in 4.0 mi NE 10.4 mph - 0.09 in Rain Rain
8:53 AM 43.0 °F 38.2 °F 39.9 °F 89% 30.29 in 4.0 mi NE 8.1 mph - 0.10 in Rain Rain
9:04 AM 43.0 °F 38.2 °F 39.9 °F 89% 30.29 in 5.0 mi NE 8.1 mph - 0.01 in Rain Light Rain
9:12 AM 43.0 °F 39.5 °F 39.9 °F 89% 30.29 in 5.0 mi NE 5.8 mph - 0.02 in Rain Rain
9:35 AM 43.0 °F 38.2 °F 39.9 °F 89% 30.29 in 4.0 mi NE 8.1 mph - 0.06 in Rain Rain
9:53 AM 43.0 °F 38.2 °F 39.9 °F 89% 30.30 in 3.0 mi NE 8.1 mph - 0.10 in Rain Rain
10:23 AM 43.0 °F 36.4 °F 39.9 °F 89% 30.27 in 2.5 mi NE 12.7 mph - 0.10 in Rain Rain
10:31 AM 43.0 °F 38.2 °F 39.9 °F 89% 30.26 in 4.0 mi NE 8.1 mph - 0.11 in Rain Rain
10:46 AM 43.0 °F 36.4 °F 39.9 °F 89% 30.25 in 2.0 mi NE 12.7 mph - 0.16 in Rain Rain
10:53 AM 43.0 °F 36.8 °F 39.9 °F 89% 30.25 in 2.5 mi NE 11.5 mph - 0.17 in Rain Rain
11:22 AM 43.0 °F 37.7 °F 39.9 °F 89% 30.22 in 1.5 mi ENE 9.2 mph - 0.07 in Rain Heavy Rain
11:25 AM 43.0 °F 37.7 °F 39.9 °F 89% 30.22 in 1.5 mi ENE 9.2 mph - 0.08 in Rain Rain
11:28 AM 43.0 °F 37.7 °F 39.9 °F 89% 30.21 in 2.0 mi ENE 9.2 mph - 0.08 in Rain Light Rain
11:33 AM 43.0 °F 37.7 °F 39.9 °F 89% 30.21 in 4.0 mi ENE 9.2 mph - 0.08 in Rain Light Rain
11:41 AM 43.0 °F 37.7 °F 39.9 °F 89% 30.20 in 5.0 mi ENE 9.2 mph - 0.08 in Rain Light Rain
11:53 AM 43.0 °F 37.7 °F 39.9 °F 89% 30.19 in 4.0 mi ENE 9.2 mph - 0.08 in Rain Light Rain
12:12 PM 43.0 °F 37.2 °F 39.9 °F 89% 30.17 in 5.0 mi ENE 10.4 mph - 0.02 in Rain Light Rain
12:38 PM 43.0 °F 37.2 °F 39.9 °F 89% 30.15 in 7.0 mi ENE 10.4 mph - 0.02 in Rain Light Rain
12:53 PM 43.0 °F 38.2 °F 41.0 °F 93% 30.14 in 4.0 mi ENE 8.1 mph - 0.03 in Rain Light Rain
1:29 PM 43.0 °F 37.2 °F 39.9 °F 89% 30.13 in 2.5 mi ENE 10.4 mph - 0.05 in Rain Rain
1:46 PM 43.0 °F 37.7 °F 41.0 °F 93% 30.09 in 3.0 mi ENE 9.2 mph - 0.07 in Rain Light Rain
1:53 PM 43.0 °F 37.2 °F 41.0 °F 93% 30.10 in 3.0 mi ENE 10.4 mph - 0.08 in Rain Rain
2:53 PM 44.1 °F 39.5 °F 41.0 °F 89% 30.06 in 8.0 mi ENE 8.1 mph - 0.05 in Rain Light Rain
3:53 PM 44.1 °F 39.5 °F 41.0 °F 89% 30.03 in 3.0 mi ENE 8.1 mph - 0.06 in Rain Light Rain
4:08 PM 44.1 °F 40.1 °F 42.1 °F 93% 30.03 in 2.5 mi ENE 6.9 mph - 0.05 in Rain Rain
4:15 PM 44.1 °F 39.0 °F 42.1 °F 93% 30.03 in 1.5 mi ENE 9.2 mph - 0.10 in Rain Heavy Rain
4:24 PM 44.1 °F 39.5 °F 42.1 °F 93% 30.02 in 2.0 mi ENE 8.1 mph - 0.12 in Rain Rain
4:32 PM 44.1 °F 39.0 °F 42.1 °F 93% 30.01 in 4.0 mi ENE 9.2 mph - 0.14 in Rain Rain
4:53 PM 44.1 °F 39.5 °F 42.1 °F 93% 30.01 in 6.0 mi ENE 8.1 mph - 0.17 in Rain Light Rain
5:11 PM 44.1 °F 39.0 °F 42.1 °F 93% 30.01 in 1.8 mi East 9.2 mph - 0.17 in Rain Heavy Rain
5:21 PM 44.1 °F 40.1 °F 42.1 °F 93% 30.00 in 3.0 mi ENE 6.9 mph - 0.22 in Rain Light Rain
5:28 PM 45.0 °F 40.6 °F 42.1 °F 90% 30.00 in 8.0 mi ENE 8.1 mph - 0.22 in Rain Light Rain
5:53 PM 45.0 °F 40.6 °F 42.1 °F 90% 30.01 in 4.0 mi East 8.1 mph - 0.27 in Rain Heavy Rain
6:28 PM 45.0 °F 39.7 °F 43.0 °F 93% 30.00 in 5.0 mi East 10.4 mph - 0.12 in Rain Heavy Rain
6:38 PM 45.0 °F 38.5 °F 43.0 °F 93% 29.98 in 3.0 mi East 13.8 mph - 0.19 in Rain Heavy Rain
6:53 PM 45.0 °F 38.5 °F 43.0 °F 93% 29.97 in 6.0 mi East 13.8 mph - 0.25 in Rain Light Rain
7:32 PM 46.0 °F 42.5 °F 44.1 °F 93% 29.99 in 2.0 mi East 6.9 mph - 0.15 in Rain Heavy Rain
7:41 PM 46.0 °F 42.5 °F 44.1 °F 93% 29.99 in 3.0 mi East 6.9 mph - 0.19 in Rain Heavy Rain
7:53 PM 46.0 °F 43.1 °F 44.1 °F 93% 30.00 in 8.0 mi East 5.8 mph - 0.20 in Rain Light Rain
8:09 PM 46.9 °F - 44.1 °F 90% 29.99 in 10.0 mi Variable 4.6 mph - 0.00 in   Overcast
8:46 PM 46.9 °F - 44.1 °F 90% 29.98 in 10.0 mi North 3.5 mph - 0.00 in   Overcast
8:53 PM 46.9 °F - 44.1 °F 90% 29.97 in 10.0 mi NE 5.8 mph - 0.00 in Rain Light Rain
9:40 PM 46.9 °F - 45.0 °F 93% 29.95 in 2.5 mi East 4.6 mph - 0.04 in Rain Light Rain
9:48 PM 46.4 °F 44.3 °F 44.6 °F 93% 29.95 in 4.0 mi East 4.6 mph - 0.05 in Rain Light Rain
9:53 PM 46.9 °F - 45.0 °F 93% 29.94 in 4.0 mi East 4.6 mph - 0.05 in Rain Light Rain
10:07 PM 46.9 °F - 45.0 °F 93% 29.94 in 9.0 mi East 4.6 mph - 0.00 in   Overcast
10:24 PM 46.9 °F - 45.0 °F 93% 29.93 in 6.0 mi East 5.8 mph - 0.01 in Rain Light Rain
10:44 PM 48.0 °F - 46.0 °F 93% 29.91 in 5.0 mi East 6.9 mph - 0.01 in Rain Light Rain
10:53 PM 48.0 °F - 46.0 °F 93% 29.90 in 7.0 mi East 6.9 mph - 0.02 in Rain Light Rain
11:53 PM 50.0 °F - 48.0 °F 93% 29.89 in 10.0 mi WNW 6.9 mph - 0.00 in   Overcast